STARLINK-1828, 46725

Orbit data source: Space-Track

STARLINK-1828, 46725 is a payload satellite owned by SpaceX/Seattle (US) in LEO that was launched on Sun, 18 Oct 2020 UTC via an FALCON 9 launch vehicle from the Air Force Eastern Test Range (AFETR). Payload-class satellites include a variety of spacecraft equipped with specific instruments for various scientific and technological missions. These include communications satellites like Starlink; space stations such as the ISS; scientific satellites like the Hubble; Earth observation satellites from companies like Planet Labs, Umbra, and HawkEye 360; GPS; miniature CubeSats for education and research; and military/defense satellites.

Loading next visibility...
Identifier
46725, 2020-073BH
Orbit
LEO
Last TLE update
13 hours ago
Origin
Manufacturer
SpaceX/Seattle
Mission
Operational Commercial Communications
Bus & Motor
STARLINK, Unknown motor
Mass
260 kg wet, ~248 kg dry
Launch date (UTC)
2020-10-18 (5 years ago)
Launch vehicle
FALCON 9
Launch site
Air Force Eastern Test Range (AFETR)
Object type
Payload
Rocket body
Debris
Shape & HBR
Box + 1 Pan, 8.86 m
Radar Cross Section
13.562 m², Large (>1 m²)

Expand to show TLE details & history

TLE from 13 hours ago
0 STARLINK-1828
1 46725U 20073BH  25183.71441476  .00000384  00000-0  44676-4 0  9995
2 46725  53.0559 298.8005 0001174  96.2465 263.8658 15.06396289259249
Epoch: 2025-07-02T17:08Z
TLE epoch observation values (Epoch: 2025-07-02T17:08:45.435Z)
Latitude
0.00001°
Longitude
120.61964°
Altitude
548.189 km
Speed
7.589 km/s
True Right ascension
19h 55m 12s
True Declination
0° 00' 00"
Sunlit
Object was in full shadow at epoch
Visualization orbit readout
Latitude
50.44628°
Longitude
-126.74877°
Altitude
552.337 km
Speed
7.592 km/s
Apparent Right ascension
04h 50m 32s
Apparent Declination
8° 07' 31"
Sunlit
Object is in daylight
Visualization observer readout
Local Sidereal Time
18:06:45
Azimuth
24.51° NE
Elevation
-38.829°
Doppler factor
1
Orbital elements
Apogee altitude
548.306 km
Perigee altitude
546.68 km
Semi-major axis
6,925.63 km
Eccentricity
0.00012
Inclination
53.0559°
RAAN
298.8005°
Arg. of periapsis
96.2465°
True anomaly
Unknown
Mean anomaly
263.8658°
Eccentric anomaly
Unknown
Mean motion
3.76577 °/min
Orbital period
95.6 mins
BSTAR
0.000044676
Loading maneuver chart data...
Loading SW <> Apogee altitude chart data...

STARLINK-1828 Visibility forecast

Observer location: undefined°, undefined°

Span
Click to sort rows by Start time (UTC) header in descending order
Start Az.
Max El. time (UTC)
Max El. Az.
Max El.
End time (UTC)
End Az.
5 mins2025-07-03 09:13:05.755Z169.13° S2025-07-03 09:15:05.755Z137.494° SSE17.968°2025-07-03 09:18:05.755Z86.043° E
6 mins2025-07-03 10:52:05.755Z248.795° W2025-07-03 10:55:05.755Z347.263° N39.763°2025-07-03 10:58:05.755Z41.726° NE
5 mins2025-07-03 15:54:05.755Z337.746° N2025-07-03 15:56:05.755Z15.05° NNE23.675°2025-07-03 15:59:05.755Z76.218° E
6 mins2025-07-03 17:34:05.755Z294.453° NW2025-07-03 17:36:05.755Z237.174° WSW40.09°2025-07-03 17:40:05.755Z145.694° SSE
|